星链-31945 (STARLINK-31945 )

导读 | 豆包AI

STARLINK-31945是美国SpaceX星链星座中的一颗卫星,于北京时间2024年5月24日8时成功发射。星链项目旨在构建全球卫星互联网星座,为全球偏远地区、海洋空域等提供高速宽带网络服务,这颗卫星的发射进一步扩充了星链星座的在轨规模,持续推进该巨型星座的部署进程。

基本信息
目录编号:
59870
目录名称:
STARLINK-31945
国际标识:
2024-098N
轨道中心:
EARTH
卫星名称:
星链-31945
卫星全名:
星链-31945 (STARLINK-31945 )
卫星状态:
在轨 (已飞行707 天)
发射日期:
2024-05-24 UTC
国别 :
美国 (US)
星等 :
--
轨道信息
数据来源 国际轨道数据
星历时间: 2026-04-30T08:31:09+0800
1天前
查看轨道信息
半长轴: 6861.164km
偏心率: 0.0001585
轨道倾角: 43.003°
近地点辐角 247.887°
升交点赤经 344.036°
平近点角 112.181°
近地点: 481.939km
远地点: 484.115km
周期: 94.266分钟
每日圈数: 15.275875
详细信息
固有亮度:
5
最大亮度:
1.5
卫星平台:
Starlink v2.0 mini
覆盖范围:
全球
运营商:
太空探索技术公司
运营商所在国:
美国
制造商(研发单位):
太空探索技术公司
制造商所在国:
美国
使用方式:
暂无
卫星简介
星链(Starlink)计划是由太空探索技术公司(SpaceX)提出的一个巨型低轨卫星互联网星座项目,计划在2019年至2024年间在太空搭建由约1.2万颗卫星组成的“星链”网络,其中1584颗将部署在地球上空550千米处的近地轨道,并从2020年开始工作。该卫星仍在工作。
2D轨道图
3D轨道图
轨道高度分析图
轨道倾角分析图
轨道综合分析图
查看轨道综合分析图